Content
SEND FEEDBACK

Daily
Averages
Monthly
Summary
United Kingdom

LONDON, ENGLAND


Home > Europe > United Kingdom > England
Elevation: 203 feet     Latitude: 51 09N     Longitude: 000 11W

WEATHER
 
SELECT A DAY
Number of Records: 297,191;   Date Range: 7/1/96 - 10/21/14
 
SHARE

PRINT THIS DATA

[ ← Previous Day ]
WEATHER ALMANAC - MAY 2, 2013
[ Next Day → ]
[ °C ]   °F
Weather ElementAverageHighLow
Temperature50.5 °F62.6 °F (2:50 pm)39.2 °F (1:50 am)
Dewpoint30.2 °F35.6 °F (2:50 pm)21.2 °F (9:20 am)
Humidity47.7 %66 % (10:20 pm)26 % (10:20 am)
Barometer30.18 in30.21 in (7:50 am)30.15 in (3:50 pm)
Wind Speed8.6 mph13.8 mph (9:50 am)
Wind Gust23 mph (11:50 am)
Weather ElementAverage
Wind DirectionENE (72.8 °)

Weather ElementTotal
Precipitation---
Heating Degree Days14.1 (Base 65)
Growing Degree Days0.9 (Base 50)
Averaged from 47 records on May 2, 2013
WEATHER CONDITIONS BREAKOUT
WIND DIRECTION BREAKOUT
WEATHER BY HOUR - MAY 2, 2013
[ °C ]   °F
Local TimeTemperatureDewpointHumidityBarometerVisibilityWind DirectionWind SpeedGust SpeedPrecipitationEventsConditions
12:50 AM42.8 °F26.6 °F53 %30.18 inNNE (30°)5.8 mphClear
1:20 AM41.0 °F28.4 °F61 %30.18 inCalmClear
1:50 AM39.2 °F28.4 °F65 %30.18 inVariable2.3 mphClear
2:20 AM41.0 °F28.4 °F61 %30.18 inNorth (350°)6.9 mphClear
2:50 AM42.8 °F28.4 °F57 %30.18 inNorth (350°)6.9 mphClear
3:20 AM41.0 °F28.4 °F61 %30.18 inNorth (360°)6.9 mphClear
3:50 AM41.0 °F28.4 °F61 %30.18 inNNE (20°)6.9 mphClear
4:20 AM39.2 °F28.4 °F65 %30.18 inNNE (20°)6.9 mphClear
4:50 AM39.2 °F26.6 °F61 %30.18 inNorth (10°)6.9 mphClear
5:20 AM39.2 °F26.6 °F61 %30.18 inNorth (10°)8.1 mphClear
5:50 AM41.0 °F26.6 °F57 %30.18 inNorth (360°)8.1 mphClear
6:20 AM41.0 °F26.6 °F57 %30.18 inNorth (10°)8.1 mphClear
6:50 AM41.0 °F26.6 °F57 %30.18 inVariable5.8 mphClear
7:20 AM42.8 °F26.6 °F53 %30.18 inNorth (10°)6.9 mphClear
7:50 AM46.4 °F26.6 °F46 %30.21 inNorth (10°)8.1 mphClear
8:20 AM48.2 °F23.0 °F37 %30.21 inNNE (30°)9.2 mphClear
8:50 AM51.8 °F23.0 °F33 %30.21 inNE (40°)9.2 mphClear
9:20 AM53.6 °F21.2 °F28 %30.21 inNE (40°)11.5 mphClear
9:50 AM53.6 °F21.2 °F28 %30.21 inNNE (30°)13.8 mphClear
10:20 AM55.4 °F21.2 °F26 %30.21 inNNE (30°)13.8 mphClear
10:50 AM57.2 °F24.8 °F29 %30.21 inNNE (30°)12.7 mphClear
11:20 AM57.2 °F24.8 °F29 %30.21 inNE (50°)12.7 mphClear
11:50 AM59.0 °F26.6 °F29 %30.21 inVariable11.5 mph23.0 mphClear
12:20 PM59.0 °F28.4 °F31 %30.18 inNE (50°)12.7 mphClear
12:50 PM60.8 °F30.2 °F31 %30.18 inNNE (30°)12.7 mphClear
1:20 PM60.8 °F33.8 °F36 %30.18 inNE (50°)11.5 mphClear
1:50 PM60.8 °F33.8 °F36 %30.18 inENE (70°)13.8 mphClear
2:20 PM60.8 °F33.8 °F36 %30.18 inENE (60°)11.5 mphClear
2:50 PM62.6 °F35.6 °F37 %30.18 inENE (60°)10.4 mphClear
3:20 PM62.6 °F35.6 °F37 %30.18 inEast (80°)9.2 mphClear
3:50 PM60.8 °F35.6 °F39 %30.15 inEast (80°)10.4 mphClear
4:20 PM60.8 °F35.6 °F39 %30.15 inEast (90°)11.5 mphClear
4:50 PM60.8 °F35.6 °F39 %30.15 inEast (90°)11.5 mphClear
5:20 PM59.0 °F35.6 °F42 %30.15 inEast (80°)12.7 mphClear
5:50 PM59.0 °F35.6 °F42 %30.15 inEast (90°)11.5 mphClear
6:20 PM57.2 °F35.6 °F44 %30.15 inEast (90°)11.5 mphClear
6:50 PM57.2 °F35.6 °F44 %30.15 inEast (90°)9.2 mphClear
7:20 PM55.4 °F35.6 °F47 %30.15 inEast (80°)9.2 mphClear
7:50 PM53.6 °F33.8 °F47 %30.18 inEast (90°)8.1 mphClear
8:20 PM50.0 °F33.8 °F54 %30.18 inEast (80°)6.9 mphClear
8:50 PM48.2 °F33.8 °F58 %30.18 inEast (80°)6.9 mphClear
9:20 PM46.4 °F33.8 °F62 %30.18 inENE (70°)6.9 mphClear
9:50 PM46.4 °F33.8 °F62 %30.18 inENE (70°)6.9 mphClear
10:20 PM44.6 °F33.8 °F66 %30.18 inEast (80°)4.6 mphClear
10:50 PM44.6 °F33.8 °F66 %30.18 inENE (70°)3.5 mphClear
11:20 PM44.6 °F33.8 °F66 %30.18 inVariable2.3 mphClear
11:50 PM44.6 °F33.8 °F66 %30.18 inCalmClear
Hourly data recorded from EGKK, located miles away from London, England







STORIES FROM OUR PARTNERS